Starlink 35883

operational
NORAD ID: 66892 Int'l Des: 2025-283 Owner: SPXS Country: US Constellation: starlink
LEOCIRCULAR

About Starlink 35883

Description loading...

Live Position

Loading 3D Globe...

Upcoming Passes

Altitude History

Altitude vs Time

uPlot chart will show altitude changes over time

Two-Line Element Set

1 66892U 25283Q 25347.25002315 -.01250927 46772-3 -33521-2 0 9993
2 66892 53.1548 71.3308 0001016 79.5813 192.6558 15.93814388 2459
Epoch: Dec 13, 2025 • Age: 20 hours

Current Status

Altitude 315.1 km
Velocity 7.72 km/s
Sub-Earth Point -50.23°S, 103.91°W
Launch Date Dec 4, 2025
Age 9 days
Type internet

Technical Details

Classification Payload
Mass 575.00 kg
Dry Mass 530.00 kg
Total Mass 575.00 kg
Length 0.30 m
Diameter 4.10 m
Span 29.00 m
Shape Box + pan
Manufacturer SPXS
Bus Type Starlink V2MO
Phase Status In Orbit
Owner/State SPXS/US

Large Constellations

Loading constellations...